Regional Weather Roundup
Issued by NWS

Home | Current Version | Previous Version | Text Only | Print | Product List | Glossary On
Versions: 1 2 3 4 5 6 7 8 9 10 11 12 13 14 15 16 17 18 19 20 21 22 23 24 25 26 27 28 29 30 31 32 33 34 35 36 37 38 39 40 41 42 43 44 45 46 47 48 49 50
516
ASUS44 KFWD 221915
RWRTX
NORTH TEXAS HOURLY WEATHER ROUNDUP
NATIONAL WEATHER SERVICE FORT WORTH TX
200 PM CDT FRI MAY 22 2015

NOTE: "FAIR" INDICATES FEW OR NO CLOUDS BELOW 12,000 FEET WITH NO
SIGNIFICANT WEATHER AND/OR OBSTRUCTIONS TO VISIBILITY.

TXZ118-119-222000-
DALLAS/FORT WORTH METROPLEX

CITY           SKY/WX    TMP DP  RH WIND       PRES   REMARKS
DFW AIRPORT    CLOUDY    59  58  96 CALM      30.13F
DALLAS LOVE    TSTM      64  58  80 VRB5      30.14R
FTW MEACHAM    CLOUDY    62  59  90 E9        30.13F
DAL-EXECUTIVE  CLOUDY    67  58  72 E7        30.13S
FTW-ALLIANCE   CLOUDY    60  57  89 SE9       30.13F
FTW-NAS-JRB    CLOUDY    63  60  90 E8        30.14F
FTW-SPINKS     CLOUDY    63  63 100 E9        30.14F FOG
ARLINGTON      CLOUDY    67  57  70 E8        30.13F
GRAND PRAIRIE  CLOUDY    63  55  77 E9        30.15S
ADDISON        RAIN      63  57  82 NE5       30.17F
MESQUITE       PTSUNNY   68  57  68 E8        30.14F
LANCASTER      CLOUDY    69  57  66 SE7       30.13F THUNDER
$$

TXZ091>094-102>105-117-120-121-131>134-222000-
NORTH CENTRAL TEXAS

CITY           SKY/WX    TMP DP  RH WIND       PRES   REMARKS
SHRMAN/DENISON CLOUDY    63  56  78 E9        30.17F
GAINESVILLE    RAIN      60  55  81 E9        30.17F
BOWIE          CLOUDY    58  58  99 SE7       30.14R
BRIDGEPORT     CLOUDY    61  61 100 SE6       30.15S
DECATUR        CLOUDY    61  56  84 E10       30.14S
DENTON         CLOUDY    63  55  75 E9        30.14S
MCKINNEY       TSTM      64  56  75 CALM      30.16R
GREENVILLE       N/A     70  57  64 SE10      30.15F
ROCKWALL       CLOUDY    67  58  73 E6        30.13F THUNDER
TERRELL        CLOUDY    70  58  65 E7        30.14F
WAXAHACHIE     CLOUDY    69  64  83 E9        30.13F
CLEBURNE       CLOUDY    66  66 100 SE7       30.14F
GRANBURY         N/A     65  63  91 SE9       30.14S FOG
$$

TXZ083>090-098>101-113>116-127>130-139>142-154-155-222000-
WESTERN NORTH TEXAS

CITY           SKY/WX    TMP DP  RH WIND       PRES   REMARKS
WICHITA FALLS  LGT RAIN  57  56  96 E14       30.14F FOG
WF-KICKAPOO    CLOUDY    60  57  92 NE10      30.15F
VERNON         CLOUDY    62  57  84 SE12      30.13S
ABILENE        CLOUDY    67  62  84 SE12      30.11S
ABILENE-DYESS  CLOUDY    70  60  72 S12       30.09F
BRECKENRIDGE   CLOUDY    68  64  86 SE9       30.11S
GRAHAM         CLOUDY    63  62  97 SE6       30.11S
MINERAL WELLS  CLOUDY    63  60  90 SE10      30.11F
STEPHENVILLE   CLOUDY    64  62  92 SE9       30.14F
COMANCHE       CLOUDY    67  67  99 SE8       30.12S
BROWNWOOD      CLOUDY    68  64  88 S10       30.11F
COLEMAN        CLOUDY    67  66  94 SE7       30.11F
BRADY          CLOUDY    70  66  88 SE10      30.11S
$$

TXZ143>147-156>162-174-175-222000-
CENTRAL TEXAS

CITY           SKY/WX    TMP DP  RH WIND       PRES   REMARKS
WACO           CLOUDY    74  65  73 SE9       30.11F
WACO-TSTC      CLOUDY    75  64  69 SE6       30.12F
WACO-MCGREGOR  CLOUDY    72  63  73 E12       30.12F
HILLSBORO      CLOUDY    69  62  78 SE9       30.12F
CORSICANA      CLOUDY    72  63  73 SE10      30.14F
MEXIA          CLOUDY    70  64  80 E12G22    30.12F
HEARNE         CLOUDY    73  66  78 E8        30.12F
CAMERON        CLOUDY    71  66  85 SE7       30.11F
TEMPLE         CLOUDY    70  63  78 E13       30.11F
KILLEEN        CLOUDY    68  67  96 SE10      30.10F
KILLEEN-SKYLRK CLOUDY    68  63  83 SE9       30.11F
FORT HOOD      CLOUDY    68  66  93 SE12      30.10S
GATESVILLE     PTSUNNY   68  66  94 SE5       30.14S FOG
HAMILTON       CLOUDY    67  67 100 SE9G16    30.14R FOG
LAMPASAS       CLOUDY    68  67  97 SE7       30.11F FOG
$$

TXZ095>097-106>112-122>126-135>138-148>153-164>167-222000-
EAST TEXAS

CITY           SKY/WX    TMP DP  RH WIND       PRES   REMARKS
PARIS          PTSUNNY   66  52  59 E13       30.17F
SULPHUR SPRNGS PTSUNNY   71  58  62 SE12      30.17F
MOUNT PLEASANT MOSUNNY   71  55  56 E10       30.18F
GILMER         FAIR      71  59  65 E9        30.16F
MINEOLA        MOSUNNY   72  61  68 SE6       30.16F
TYLER          CLOUDY    73  60  63 SE13      30.15F
LONGVIEW       MOSUNNY   73  60  63 E7        30.15F
MARSHALL       SUNNY     73  60  63 E6        30.19F
ATHENS         PTSUNNY   72  61  68 E9        30.12F
PALESTINE      CLOUDY    74  64  71 CALM      30.15F
JACKSONVILLE   PTSUNNY   73  62  68 E7        30.17F HAZE
HENDERSON      CLOUDY    73  60  65 E5        30.17F
NACOGDOCHES    MOSUNNY  N/A N/A N/A SE5       30.16F
LUFKIN         PTSUNNY   77  64  64 SE7       30.15F
$$

SUPPLEMENTAL OBSERVATIONS (CENTRAL)

CITY           SKY/WX    TMP DP  RH WIND       PRES   REMARKS
LAKE TEXOMA      N/A     61  54  77 E6          N/A
PAT MAYSE LAKE   N/A     64  54  68 NE7         N/A
GREENVILLE       N/A     70  55  60 SE6G14      N/A
CEDAR HILL       N/A    N/A N/A N/A E1G9        N/A
ATHENS           N/A    N/A N/A N/A SE9         N/A
LAKE LIMESTONE   N/A     73  63  68 SE6         N/A
MCGREGOR         N/A     70  64  83 SE8         N/A
TEMPLE           N/A     72  66  83 E10         N/A
$$

SUPPLEMENTAL OBSERVATIONS (WEST)

CITY           SKY/WX    TMP DP  RH WIND       PRES   REMARKS
MILLERS CREEK    N/A     63  59  88 E2          N/A
POSSUM KINGDOM   N/A     64  61  88 SE9         N/A
GRANBURY         N/A     64  59  82 SE10        N/A
COMANCHE         N/A     68  63  83 SE10        N/A
HAMBY            N/A     66  61  82 SE8G16      N/A
IVIE RESERVOIR   N/A     73  64  73 SE12        N/A
COLORADO BEND    N/A     68  66  94 S8          N/A
$$

SUPPLEMENTAL OBSERVATIONS (EAST)

CITY           SKY/WX    TMP DP  RH WIND       PRES   REMARKS
CLARKSVILLE      N/A     68  54  60 E9          N/A
TEXARKANA        N/A     72  54  53 E6          N/A
LINDEN           N/A     72  54  53 E7          N/A
CADDO LAKE       N/A     73  57  56 E6          N/A
GILMER           N/A     73  59  60 E7          N/A
HENDERSON        N/A     73  59  60 SE8         N/A
N SABINE NF      N/A     72  61  68 MISG        N/A
S SABINE NF      N/A     68  59  73 CALM        N/A
$$

SUPPLEMENTAL OBSERVATIONS ARE A COLLECTION OF AUTOMATED INSTRUMENTS
THAT ARE MAINTAINED BY A VARIETY OF FEDERAL AND STATE AGENCIES.
CERTAIN ELEMENTS...SUCH AS HUMIDITY VALUES AND SUSTAINED WIND
SPEEDS...MAY BE APPROXIMATED.




USA.gov is the U.S. government's official web portal to all federal, state and local government web resources and services.